This is the latest recevied weather packets stored in our database for station/object DW2488. If no packets are shown the sender has not sent any weather packets the latest 10 day(s).
| Time | Temp. | Humidity | Pressure | Rain* | Wind** | Luminosity | Snow |
|---|---|---|---|---|---|---|---|
| 1777860496 | 17.22° C | 93% | 1016.5 hPa | 0.25 mm | - | 137 W/m² | - |
| 1777859598 | 17.22° C | 92% | 1016.6 hPa | 0.51 mm | - | 153 W/m² | - |
| 1777858694 | 16.67° C | 93% | 1016.6 hPa | 0.76 mm | - | 74 W/m² | - |
| 1777857799 | 16.67° C | 92% | 1017 hPa | 1.02 mm | - | 102 W/m² | - |
| 1777856897 | 16.67° C | 92% | 1017.3 hPa | 1.52 mm | - | 95 W/m² | - |
| 1777855968 | 16.11° C | 92% | 1017.3 hPa | 2.03 mm | - | 79 W/m² | - |
| 1777855075 | 16.11° C | 91% | 1017.4 hPa | 2.54 mm | - | 74 W/m² | - |
| 1777854167 | 15.56° C | 90% | 1017.4 hPa | 3.56 mm | - | 33 W/m² | - |
| 1777853260 | 15.56° C | 90% | 1017.7 hPa | 4.83 mm | - | 26 W/m² | - |
| 1777852360 | 15.56° C | 90% | 1017.6 hPa | 5.59 mm | - | 14 W/m² | - |
| 1777851455 | 15.56° C | 89% | 1017.7 hPa | 5.08 mm | - | 16 W/m² | - |
| 1777850533 | 15.56° C | 89% | 1017.9 hPa | 3.81 mm | - | 11 W/m² | - |
| 1777849637 | 15.56° C | 89% | 1018 hPa | 2.29 mm | - | 12 W/m² | - |
| 1777848721 | 15.56° C | 89% | 1017.8 hPa | 1.02 mm | - | 35 W/m² | - |
| 1777847808 | 15.56° C | 88% | 1017.5 hPa | 0.51 mm | - | 49 W/m² | - |
| 1777846901 | 15° C | 88% | 1017.4 hPa | 0.25 mm | - | 58 W/m² | - |
| 1777845997 | 15° C | 88% | 1017.1 hPa | 0.25 mm | - | 32 W/m² | - |
| 1777845103 | 15° C | 88% | 1017.1 hPa | 0 mm | - | 37 W/m² | - |
| 1777844178 | 14.44° C | 88% | 1016.9 hPa | 0 mm | - | 42 W/m² | - |
| 1777843280 | 14.44° C | 88% | 1016.7 hPa | 0 mm | - | 12 W/m² | - |
| 1777842372 | 14.44° C | 88% | 1016.3 hPa | 0 mm | - | 11 W/m² | - |
| 1777841477 | 14.44° C | 88% | 1016.3 hPa | 0 mm | - | 5 W/m² | - |
| 1777840572 | 14.44° C | 88% | 1016.3 hPa | 0 mm | - | 0 W/m² | - |
| 1777839664 | 14.44° C | 88% | 1016.2 hPa | 0 mm | - | 0 W/m² | - |
| 1777838763 | 14.44° C | 88% | 1016 hPa | 0 mm | - | 0 W/m² | - |
* Rain latest hour (hover to see other rain measurements)
** Current wind speed in m/s (hover to see current wind gust speed)